Index of /20260506/WXO-DD/model_rdps/10km/00/049
Name Last modified Size Description
Parent Directory -
20260506T00Z_MSC_RDPS_AbsoluteVorticity_IsbL-0250_RLatLon0.09_PT049H.grib2 2026-05-06 02:55 588K
20260506T00Z_MSC_RDPS_AbsoluteVorticity_IsbL-0500_RLatLon0.09_PT049H.grib2 2026-05-06 02:55 557K
20260506T00Z_MSC_RDPS_AbsoluteVorticity_IsbL-0700_RLatLon0.09_PT049H.grib2 2026-05-06 02:55 615K
20260506T00Z_MSC_RDPS_AbsoluteVorticity_IsbL-0850_RLatLon0.09_PT049H.grib2 2026-05-06 02:55 771K
20260506T00Z_MSC_RDPS_AirTemp_AGL-120m_RLatLon0.09_PT049H.grib2 2026-05-06 02:55 370K
20260506T00Z_MSC_RDPS_AirTemp_AGL-2m_RLatLon0.09_PT049H.grib2 2026-05-06 02:55 625K
20260506T00Z_MSC_RDPS_AirTemp_AGL-40m_RLatLon0.09_PT049H.grib2 2026-05-06 02:55 382K
20260506T00Z_MSC_RDPS_AirTemp_AGL-80m_RLatLon0.09_PT049H.grib2 2026-05-06 02:55 374K
20260506T00Z_MSC_RDPS_AirTemp_IsbL-0001_RLatLon0.09_PT049H.grib2 2026-05-06 02:55 303K
20260506T00Z_MSC_RDPS_AirTemp_IsbL-0005_RLatLon0.09_PT049H.grib2 2026-05-06 02:55 285K
20260506T00Z_MSC_RDPS_AirTemp_IsbL-0010_RLatLon0.09_PT049H.grib2 2026-05-06 02:55 388K
20260506T00Z_MSC_RDPS_AirTemp_IsbL-0020_RLatLon0.09_PT049H.grib2 2026-05-06 02:55 318K
20260506T00Z_MSC_RDPS_AirTemp_IsbL-0030_RLatLon0.09_PT049H.grib2 2026-05-06 02:55 336K
20260506T00Z_MSC_RDPS_AirTemp_IsbL-0050_RLatLon0.09_PT049H.grib2 2026-05-06 02:55 309K
20260506T00Z_MSC_RDPS_AirTemp_IsbL-0100_RLatLon0.09_PT049H.grib2 2026-05-06 02:55 420K
20260506T00Z_MSC_RDPS_AirTemp_IsbL-0150_RLatLon0.09_PT049H.grib2 2026-05-06 02:55 409K
20260506T00Z_MSC_RDPS_AirTemp_IsbL-0175_RLatLon0.09_PT049H.grib2 2026-05-06 02:55 401K
20260506T00Z_MSC_RDPS_AirTemp_IsbL-0200_RLatLon0.09_PT049H.grib2 2026-05-06 02:55 407K
20260506T00Z_MSC_RDPS_AirTemp_IsbL-0225_RLatLon0.09_PT049H.grib2 2026-05-06 02:55 409K
20260506T00Z_MSC_RDPS_AirTemp_IsbL-0250_RLatLon0.09_PT049H.grib2 2026-05-06 02:55 416K
20260506T00Z_MSC_RDPS_AirTemp_IsbL-0275_RLatLon0.09_PT049H.grib2 2026-05-06 02:55 396K
20260506T00Z_MSC_RDPS_AirTemp_IsbL-0300_RLatLon0.09_PT049H.grib2 2026-05-06 02:55 429K
20260506T00Z_MSC_RDPS_AirTemp_IsbL-0350_RLatLon0.09_PT049H.grib2 2026-05-06 02:55 416K
20260506T00Z_MSC_RDPS_AirTemp_IsbL-0400_RLatLon0.09_PT049H.grib2 2026-05-06 02:55 418K
20260506T00Z_MSC_RDPS_AirTemp_IsbL-0450_RLatLon0.09_PT049H.grib2 2026-05-06 02:55 428K
20260506T00Z_MSC_RDPS_AirTemp_IsbL-0500_RLatLon0.09_PT049H.grib2 2026-05-06 02:55 405K
20260506T00Z_MSC_RDPS_AirTemp_IsbL-0550_RLatLon0.09_PT049H.grib2 2026-05-06 02:55 420K
20260506T00Z_MSC_RDPS_AirTemp_IsbL-0600_RLatLon0.09_PT049H.grib2 2026-05-06 02:55 437K
20260506T00Z_MSC_RDPS_AirTemp_IsbL-0650_RLatLon0.09_PT049H.grib2 2026-05-06 02:55 453K
20260506T00Z_MSC_RDPS_AirTemp_IsbL-0700_RLatLon0.09_PT049H.grib2 2026-05-06 02:55 478K
20260506T00Z_MSC_RDPS_AirTemp_IsbL-0750_RLatLon0.09_PT049H.grib2 2026-05-06 02:55 514K
20260506T00Z_MSC_RDPS_AirTemp_IsbL-0800_RLatLon0.09_PT049H.grib2 2026-05-06 02:55 442K
20260506T00Z_MSC_RDPS_AirTemp_IsbL-0850_RLatLon0.09_PT049H.grib2 2026-05-06 02:55 488K
20260506T00Z_MSC_RDPS_AirTemp_IsbL-0875_RLatLon0.09_PT049H.grib2 2026-05-06 02:55 508K
20260506T00Z_MSC_RDPS_AirTemp_IsbL-0900_RLatLon0.09_PT049H.grib2 2026-05-06 02:55 519K
20260506T00Z_MSC_RDPS_AirTemp_IsbL-0925_RLatLon0.09_PT049H.grib2 2026-05-06 02:55 521K
20260506T00Z_MSC_RDPS_AirTemp_IsbL-0950_RLatLon0.09_PT049H.grib2 2026-05-06 02:55 518K
20260506T00Z_MSC_RDPS_AirTemp_IsbL-0970_RLatLon0.09_PT049H.grib2 2026-05-06 02:55 514K
20260506T00Z_MSC_RDPS_AirTemp_IsbL-0985_RLatLon0.09_PT049H.grib2 2026-05-06 02:55 504K
20260506T00Z_MSC_RDPS_AirTemp_IsbL-1000_RLatLon0.09_PT049H.grib2 2026-05-06 02:55 492K
20260506T00Z_MSC_RDPS_AirTemp_IsbL-1015_RLatLon0.09_PT049H.grib2 2026-05-06 02:55 492K
20260506T00Z_MSC_RDPS_Albedo_Sfc_RLatLon0.09_PT049H.grib2 2026-05-06 02:55 157K
20260506T00Z_MSC_RDPS_CAPE_Sfc_RLatLon0.09_PT049H.grib2 2026-05-06 02:55 1.8M
20260506T00Z_MSC_RDPS_CIN_Sfc_RLatLon0.09_PT049H.grib2 2026-05-06 02:55 1.3M
20260506T00Z_MSC_RDPS_CloudWater_EAtm_RLatLon0.09_PT049H.grib2 2026-05-06 02:55 227K
20260506T00Z_MSC_RDPS_ConvectivePrecip-Accum_Sfc_RLatLon0.09_PT049H.grib2 2026-05-06 02:55 1.0M
20260506T00Z_MSC_RDPS_DewPointDepression_AGL-2m_RLatLon0.09_PT049H.grib2 2026-05-06 02:55 412K
20260506T00Z_MSC_RDPS_DewPointDepression_IsbL-0001_RLatLon0.09_PT049H.grib2 2026-05-06 02:55 193
20260506T00Z_MSC_RDPS_DewPointDepression_IsbL-0005_RLatLon0.09_PT049H.grib2 2026-05-06 02:55 193
20260506T00Z_MSC_RDPS_DewPointDepression_IsbL-0010_RLatLon0.09_PT049H.grib2 2026-05-06 02:55 193
20260506T00Z_MSC_RDPS_DewPointDepression_IsbL-0020_RLatLon0.09_PT049H.grib2 2026-05-06 02:55 193
20260506T00Z_MSC_RDPS_DewPointDepression_IsbL-0030_RLatLon0.09_PT049H.grib2 2026-05-06 02:55 193
20260506T00Z_MSC_RDPS_DewPointDepression_IsbL-0050_RLatLon0.09_PT049H.grib2 2026-05-06 02:55 81K
20260506T00Z_MSC_RDPS_DewPointDepression_IsbL-0100_RLatLon0.09_PT049H.grib2 2026-05-06 02:55 112K
20260506T00Z_MSC_RDPS_DewPointDepression_IsbL-0150_RLatLon0.09_PT049H.grib2 2026-05-06 02:55 140K
20260506T00Z_MSC_RDPS_DewPointDepression_IsbL-0175_RLatLon0.09_PT049H.grib2 2026-05-06 02:55 174K
20260506T00Z_MSC_RDPS_DewPointDepression_IsbL-0200_RLatLon0.09_PT049H.grib2 2026-05-06 02:55 213K
20260506T00Z_MSC_RDPS_DewPointDepression_IsbL-0225_RLatLon0.09_PT049H.grib2 2026-05-06 02:55 246K
20260506T00Z_MSC_RDPS_DewPointDepression_IsbL-0250_RLatLon0.09_PT049H.grib2 2026-05-06 02:55 295K
20260506T00Z_MSC_RDPS_DewPointDepression_IsbL-0275_RLatLon0.09_PT049H.grib2 2026-05-06 02:55 306K
20260506T00Z_MSC_RDPS_DewPointDepression_IsbL-0300_RLatLon0.09_PT049H.grib2 2026-05-06 02:55 324K
20260506T00Z_MSC_RDPS_DewPointDepression_IsbL-0350_RLatLon0.09_PT049H.grib2 2026-05-06 02:55 329K
20260506T00Z_MSC_RDPS_DewPointDepression_IsbL-0400_RLatLon0.09_PT049H.grib2 2026-05-06 02:55 337K
20260506T00Z_MSC_RDPS_DewPointDepression_IsbL-0450_RLatLon0.09_PT049H.grib2 2026-05-06 02:55 342K
20260506T00Z_MSC_RDPS_DewPointDepression_IsbL-0500_RLatLon0.09_PT049H.grib2 2026-05-06 02:55 352K
20260506T00Z_MSC_RDPS_DewPointDepression_IsbL-0550_RLatLon0.09_PT049H.grib2 2026-05-06 02:55 365K
20260506T00Z_MSC_RDPS_DewPointDepression_IsbL-0600_RLatLon0.09_PT049H.grib2 2026-05-06 02:55 378K
20260506T00Z_MSC_RDPS_DewPointDepression_IsbL-0650_RLatLon0.09_PT049H.grib2 2026-05-06 02:55 382K
20260506T00Z_MSC_RDPS_DewPointDepression_IsbL-0700_RLatLon0.09_PT049H.grib2 2026-05-06 02:55 394K
20260506T00Z_MSC_RDPS_DewPointDepression_IsbL-0750_RLatLon0.09_PT049H.grib2 2026-05-06 02:55 417K
20260506T00Z_MSC_RDPS_DewPointDepression_IsbL-0800_RLatLon0.09_PT049H.grib2 2026-05-06 02:55 451K
20260506T00Z_MSC_RDPS_DewPointDepression_IsbL-0850_RLatLon0.09_PT049H.grib2 2026-05-06 02:55 480K
20260506T00Z_MSC_RDPS_DewPointDepression_IsbL-0875_RLatLon0.09_PT049H.grib2 2026-05-06 02:55 478K
20260506T00Z_MSC_RDPS_DewPointDepression_IsbL-0900_RLatLon0.09_PT049H.grib2 2026-05-06 02:55 470K
20260506T00Z_MSC_RDPS_DewPointDepression_IsbL-0925_RLatLon0.09_PT049H.grib2 2026-05-06 02:55 459K
20260506T00Z_MSC_RDPS_DewPointDepression_IsbL-0950_RLatLon0.09_PT049H.grib2 2026-05-06 02:55 446K
20260506T00Z_MSC_RDPS_DewPointDepression_IsbL-0970_RLatLon0.09_PT049H.grib2 2026-05-06 02:55 437K
20260506T00Z_MSC_RDPS_DewPointDepression_IsbL-0985_RLatLon0.09_PT049H.grib2 2026-05-06 02:55 433K
20260506T00Z_MSC_RDPS_DewPointDepression_IsbL-1000_RLatLon0.09_PT049H.grib2 2026-05-06 02:55 430K
20260506T00Z_MSC_RDPS_DewPointDepression_IsbL-1015_RLatLon0.09_PT049H.grib2 2026-05-06 02:55 418K
20260506T00Z_MSC_RDPS_DewPoint_AGL-2m_RLatLon0.09_PT049H.grib2 2026-05-06 02:55 399K
20260506T00Z_MSC_RDPS_DownwardLongwaveRadiationFlux-Accum_Sfc_RLatLon0.09_PT049H.grib2 2026-05-06 02:55 376K
20260506T00Z_MSC_RDPS_DownwardShortwaveRadiationFlux-Accum_NTAtm_RLatLon0.09_PT049H.grib2 2026-05-06 02:55 174K
20260506T00Z_MSC_RDPS_DownwardShortwaveRadiationFlux-Accum_Sfc_RLatLon0.09_PT049H.grib2 2026-05-06 02:55 573K
20260506T00Z_MSC_RDPS_FreezingRain-Accum1h_Sfc_RLatLon0.09_PT049H.grib2 2026-05-06 02:55 28K
20260506T00Z_MSC_RDPS_FreezingRain-Accum_Sfc_RLatLon0.09_PT049H.grib2 2026-05-06 02:55 180K
20260506T00Z_MSC_RDPS_GeopotentialHeight_IsbL-0001_RLatLon0.09_PT049H.grib2 2026-05-06 02:55 333K
20260506T00Z_MSC_RDPS_GeopotentialHeight_IsbL-0005_RLatLon0.09_PT049H.grib2 2026-05-06 02:55 330K
20260506T00Z_MSC_RDPS_GeopotentialHeight_IsbL-0010_RLatLon0.09_PT049H.grib2 2026-05-06 02:55 332K
20260506T00Z_MSC_RDPS_GeopotentialHeight_IsbL-0020_RLatLon0.09_PT049H.grib2 2026-05-06 02:55 298K
20260506T00Z_MSC_RDPS_GeopotentialHeight_IsbL-0030_RLatLon0.09_PT049H.grib2 2026-05-06 02:55 395K
20260506T00Z_MSC_RDPS_GeopotentialHeight_IsbL-0050_RLatLon0.09_PT049H.grib2 2026-05-06 02:55 301K
20260506T00Z_MSC_RDPS_GeopotentialHeight_IsbL-0100_RLatLon0.09_PT049H.grib2 2026-05-06 02:55 282K
20260506T00Z_MSC_RDPS_GeopotentialHeight_IsbL-0150_RLatLon0.09_PT049H.grib2 2026-05-06 02:55 225K
20260506T00Z_MSC_RDPS_GeopotentialHeight_IsbL-0175_RLatLon0.09_PT049H.grib2 2026-05-06 02:55 227K
20260506T00Z_MSC_RDPS_GeopotentialHeight_IsbL-0200_RLatLon0.09_PT049H.grib2 2026-05-06 02:55 262K
20260506T00Z_MSC_RDPS_GeopotentialHeight_IsbL-0225_RLatLon0.09_PT049H.grib2 2026-05-06 02:55 264K
20260506T00Z_MSC_RDPS_GeopotentialHeight_IsbL-0250_RLatLon0.09_PT049H.grib2 2026-05-06 02:55 265K
20260506T00Z_MSC_RDPS_GeopotentialHeight_IsbL-0275_RLatLon0.09_PT049H.grib2 2026-05-06 02:55 263K
20260506T00Z_MSC_RDPS_GeopotentialHeight_IsbL-0300_RLatLon0.09_PT049H.grib2 2026-05-06 02:55 232K
20260506T00Z_MSC_RDPS_GeopotentialHeight_IsbL-0350_RLatLon0.09_PT049H.grib2 2026-05-06 02:55 228K
20260506T00Z_MSC_RDPS_GeopotentialHeight_IsbL-0400_RLatLon0.09_PT049H.grib2 2026-05-06 02:55 225K
20260506T00Z_MSC_RDPS_GeopotentialHeight_IsbL-0450_RLatLon0.09_PT049H.grib2 2026-05-06 02:55 291K
20260506T00Z_MSC_RDPS_GeopotentialHeight_IsbL-0500_RLatLon0.09_PT049H.grib2 2026-05-06 02:55 287K
20260506T00Z_MSC_RDPS_GeopotentialHeight_IsbL-0550_RLatLon0.09_PT049H.grib2 2026-05-06 02:55 284K
20260506T00Z_MSC_RDPS_GeopotentialHeight_IsbL-0600_RLatLon0.09_PT049H.grib2 2026-05-06 02:55 280K
20260506T00Z_MSC_RDPS_GeopotentialHeight_IsbL-0650_RLatLon0.09_PT049H.grib2 2026-05-06 02:55 251K
20260506T00Z_MSC_RDPS_GeopotentialHeight_IsbL-0700_RLatLon0.09_PT049H.grib2 2026-05-06 02:55 331K
20260506T00Z_MSC_RDPS_GeopotentialHeight_IsbL-0750_RLatLon0.09_PT049H.grib2 2026-05-06 02:55 332K
20260506T00Z_MSC_RDPS_GeopotentialHeight_IsbL-0800_RLatLon0.09_PT049H.grib2 2026-05-06 02:55 370K
20260506T00Z_MSC_RDPS_GeopotentialHeight_IsbL-0850_RLatLon0.09_PT049H.grib2 2026-05-06 02:55 377K
20260506T00Z_MSC_RDPS_GeopotentialHeight_IsbL-0875_RLatLon0.09_PT049H.grib2 2026-05-06 02:55 381K
20260506T00Z_MSC_RDPS_GeopotentialHeight_IsbL-0900_RLatLon0.09_PT049H.grib2 2026-05-06 02:55 385K
20260506T00Z_MSC_RDPS_GeopotentialHeight_IsbL-0925_RLatLon0.09_PT049H.grib2 2026-05-06 02:55 361K
20260506T00Z_MSC_RDPS_GeopotentialHeight_IsbL-0950_RLatLon0.09_PT049H.grib2 2026-05-06 02:55 363K
20260506T00Z_MSC_RDPS_GeopotentialHeight_IsbL-0970_RLatLon0.09_PT049H.grib2 2026-05-06 02:55 368K
20260506T00Z_MSC_RDPS_GeopotentialHeight_IsbL-0985_RLatLon0.09_PT049H.grib2 2026-05-06 02:55 377K
20260506T00Z_MSC_RDPS_GeopotentialHeight_IsbL-1000_RLatLon0.09_PT049H.grib2 2026-05-06 02:55 390K
20260506T00Z_MSC_RDPS_GeopotentialHeight_IsbL-1015_RLatLon0.09_PT049H.grib2 2026-05-06 02:55 408K
20260506T00Z_MSC_RDPS_HighLowPressure_MSL_RLatLon0.09_PT049H.json 2026-05-06 02:46 22K
20260506T00Z_MSC_RDPS_Humidex_Sfc_RLatLon0.09_PT049H.grib2 2026-05-06 02:55 2.4M
20260506T00Z_MSC_RDPS_IcePellets-Accum1h_Sfc_RLatLon0.09_PT049H.grib2 2026-05-06 02:55 3.7K
20260506T00Z_MSC_RDPS_IcePellets-Accum_Sfc_RLatLon0.09_PT049H.grib2 2026-05-06 02:55 26K
20260506T00Z_MSC_RDPS_KIndex_Sfc_RLatLon0.09_PT049H.grib2 2026-05-06 02:55 2.5M
20260506T00Z_MSC_RDPS_LatentHeatNetFlux_Sfc_RLatLon0.09_PT049H.grib2 2026-05-06 02:55 342K
20260506T00Z_MSC_RDPS_LiftedIndex-MU-VT_IsbL-0500_RLatLon0.09_PT049H.grib2 2026-05-06 02:55 2.4M
20260506T00Z_MSC_RDPS_NetLongwaveRadiationFlux-Accum_Sfc_RLatLon0.09_PT049H.grib2 2026-05-06 02:55 551K
20260506T00Z_MSC_RDPS_NetShortwaveRadiationFlux-Accum_Sfc_RLatLon0.09_PT049H.grib2 2026-05-06 02:55 570K
20260506T00Z_MSC_RDPS_PlanetaryBoundaryLayerHeight_Sfc_RLatLon0.09_PT049H.grib2 2026-05-06 02:55 1.0M
20260506T00Z_MSC_RDPS_Precip-Accum1h_Sfc_RLatLon0.09_PT049H.grib2 2026-05-06 02:55 1.2M
20260506T00Z_MSC_RDPS_Precip-Accum_Sfc_RLatLon0.09_PT049H.grib2 2026-05-06 02:55 2.1M
20260506T00Z_MSC_RDPS_PrecipRate_Sfc_RLatLon0.09_PT049H.grib2 2026-05-06 02:55 166K
20260506T00Z_MSC_RDPS_PrecipType-Instant_Sfc_RLatLon0.09_PT049H.grib2 2026-05-06 02:55 555K
20260506T00Z_MSC_RDPS_Pressure-Trend3h_Sfc_RLatLon0.09_PT049H.grib2 2026-05-06 02:55 1.2M
20260506T00Z_MSC_RDPS_Pressure_MSL_RLatLon0.09_PT049H.grib2 2026-05-06 02:55 431K
20260506T00Z_MSC_RDPS_Pressure_PVU-1.5_RLatLon0.09_PT049H.grib2 2026-05-06 02:55 2.5M
20260506T00Z_MSC_RDPS_Pressure_PVU-1_RLatLon0.09_PT049H.grib2 2026-05-06 02:55 2.4M
20260506T00Z_MSC_RDPS_Pressure_PVU-2_RLatLon0.09_PT049H.grib2 2026-05-06 02:55 2.4M
20260506T00Z_MSC_RDPS_Pressure_Sfc_RLatLon0.09_PT049H.grib2 2026-05-06 02:55 497K
20260506T00Z_MSC_RDPS_RadiativeTemp_Sfc_RLatLon0.09_PT049H.grib2 2026-05-06 02:55 312K
20260506T00Z_MSC_RDPS_Rain-Accum1h_Sfc_RLatLon0.09_PT049H.grib2 2026-05-06 02:55 598K
20260506T00Z_MSC_RDPS_Rain-Accum_Sfc_RLatLon0.09_PT049H.grib2 2026-05-06 02:55 1.7M
20260506T00Z_MSC_RDPS_RelativeHumidity_AGL-2m_RLatLon0.09_PT049H.grib2 2026-05-06 02:55 1.0M
20260506T00Z_MSC_RDPS_RelativeHumidity_IsbL-0010_RLatLon0.09_PT049H.grib2 2026-05-06 02:55 579K
20260506T00Z_MSC_RDPS_RelativeHumidity_IsbL-0020_RLatLon0.09_PT049H.grib2 2026-05-06 02:55 654K
20260506T00Z_MSC_RDPS_RelativeHumidity_IsbL-0030_RLatLon0.09_PT049H.grib2 2026-05-06 02:55 601K
20260506T00Z_MSC_RDPS_RelativeHumidity_IsbL-0050_RLatLon0.09_PT049H.grib2 2026-05-06 02:55 355K
20260506T00Z_MSC_RDPS_RelativeHumidity_IsbL-0100_RLatLon0.09_PT049H.grib2 2026-05-06 02:55 277K
20260506T00Z_MSC_RDPS_RelativeHumidity_IsbL-0150_RLatLon0.09_PT049H.grib2 2026-05-06 02:55 408K
20260506T00Z_MSC_RDPS_RelativeHumidity_IsbL-0175_RLatLon0.09_PT049H.grib2 2026-05-06 02:55 459K
20260506T00Z_MSC_RDPS_RelativeHumidity_IsbL-0200_RLatLon0.09_PT049H.grib2 2026-05-06 02:55 530K
20260506T00Z_MSC_RDPS_RelativeHumidity_IsbL-0225_RLatLon0.09_PT049H.grib2 2026-05-06 02:55 596K
20260506T00Z_MSC_RDPS_RelativeHumidity_IsbL-0250_RLatLon0.09_PT049H.grib2 2026-05-06 02:55 662K
20260506T00Z_MSC_RDPS_RelativeHumidity_IsbL-0275_RLatLon0.09_PT049H.grib2 2026-05-06 02:55 691K
20260506T00Z_MSC_RDPS_RelativeHumidity_IsbL-0300_RLatLon0.09_PT049H.grib2 2026-05-06 02:55 737K
20260506T00Z_MSC_RDPS_RelativeHumidity_IsbL-0350_RLatLon0.09_PT049H.grib2 2026-05-06 02:55 760K
20260506T00Z_MSC_RDPS_RelativeHumidity_IsbL-0400_RLatLon0.09_PT049H.grib2 2026-05-06 02:55 778K
20260506T00Z_MSC_RDPS_RelativeHumidity_IsbL-0450_RLatLon0.09_PT049H.grib2 2026-05-06 02:55 788K
20260506T00Z_MSC_RDPS_RelativeHumidity_IsbL-0500_RLatLon0.09_PT049H.grib2 2026-05-06 02:55 801K
20260506T00Z_MSC_RDPS_RelativeHumidity_IsbL-0550_RLatLon0.09_PT049H.grib2 2026-05-06 02:55 821K
20260506T00Z_MSC_RDPS_RelativeHumidity_IsbL-0600_RLatLon0.09_PT049H.grib2 2026-05-06 02:55 842K
20260506T00Z_MSC_RDPS_RelativeHumidity_IsbL-0650_RLatLon0.09_PT049H.grib2 2026-05-06 02:55 852K
20260506T00Z_MSC_RDPS_RelativeHumidity_IsbL-0700_RLatLon0.09_PT049H.grib2 2026-05-06 02:55 886K
20260506T00Z_MSC_RDPS_RelativeHumidity_IsbL-0750_RLatLon0.09_PT049H.grib2 2026-05-06 02:55 930K
20260506T00Z_MSC_RDPS_RelativeHumidity_IsbL-0800_RLatLon0.09_PT049H.grib2 2026-05-06 02:55 1.0M
20260506T00Z_MSC_RDPS_RelativeHumidity_IsbL-0850_RLatLon0.09_PT049H.grib2 2026-05-06 02:55 1.0M
20260506T00Z_MSC_RDPS_RelativeHumidity_IsbL-0875_RLatLon0.09_PT049H.grib2 2026-05-06 02:55 1.1M
20260506T00Z_MSC_RDPS_RelativeHumidity_IsbL-0900_RLatLon0.09_PT049H.grib2 2026-05-06 02:55 1.1M
20260506T00Z_MSC_RDPS_RelativeHumidity_IsbL-0925_RLatLon0.09_PT049H.grib2 2026-05-06 02:55 1.1M
20260506T00Z_MSC_RDPS_RelativeHumidity_IsbL-0950_RLatLon0.09_PT049H.grib2 2026-05-06 02:55 1.1M
20260506T00Z_MSC_RDPS_RelativeHumidity_IsbL-0970_RLatLon0.09_PT049H.grib2 2026-05-06 02:55 1.0M
20260506T00Z_MSC_RDPS_RelativeHumidity_IsbL-0985_RLatLon0.09_PT049H.grib2 2026-05-06 02:55 1.0M
20260506T00Z_MSC_RDPS_RelativeHumidity_IsbL-1000_RLatLon0.09_PT049H.grib2 2026-05-06 02:55 1.0M
20260506T00Z_MSC_RDPS_RelativeHumidity_IsbL-1015_RLatLon0.09_PT049H.grib2 2026-05-06 02:55 1.0M
20260506T00Z_MSC_RDPS_Runoff-Accum_Sfc_RLatLon0.09_PT049H.grib2 2026-05-06 02:55 55K
20260506T00Z_MSC_RDPS_SWEATIndex_Sfc_RLatLon0.09_PT049H.grib2 2026-05-06 02:55 2.4M
20260506T00Z_MSC_RDPS_SeeingIndex_EAtm_RLatLon0.09_PT049H.grib2 2026-05-06 02:55 1.0M
20260506T00Z_MSC_RDPS_SensibleHeatNetFlux_Sfc_RLatLon0.09_PT049H.grib2 2026-05-06 02:55 298K
20260506T00Z_MSC_RDPS_ShowalterIndex_IsbL-0500_RLatLon0.09_PT049H.grib2 2026-05-06 02:55 2.6M
20260506T00Z_MSC_RDPS_SkyTransparencyIndex_EAtm_RLatLon0.09_PT049H.grib2 2026-05-06 02:55 735K
20260506T00Z_MSC_RDPS_Snow-Accum1h_Sfc_RLatLon0.09_PT049H.grib2 2026-05-06 02:55 452K
20260506T00Z_MSC_RDPS_Snow-Accum_Sfc_RLatLon0.09_PT049H.grib2 2026-05-06 02:55 755K
20260506T00Z_MSC_RDPS_SnowDensity_Sfc_RLatLon0.09_PT049H.grib2 2026-05-06 02:55 175K
20260506T00Z_MSC_RDPS_SnowDepth_Sfc_RLatLon0.09_PT049H.grib2 2026-05-06 02:55 639K
20260506T00Z_MSC_RDPS_SoilTemp_DBS-0to10cm_RLatLon0.09_PT049H.grib2 2026-05-06 02:55 241K
20260506T00Z_MSC_RDPS_SoilTemp_Sfc_RLatLon0.09_PT049H.grib2 2026-05-06 02:55 265K
20260506T00Z_MSC_RDPS_SoilVolumetricIceContent_Sfc_RLatLon0.09_PT049H.grib2 2026-05-06 02:55 148K
20260506T00Z_MSC_RDPS_SoilVolumetricWaterContent_DBS-0to10cm_RLatLon0.09_PT049H.grib2 2026-05-06 02:55 284K
20260506T00Z_MSC_RDPS_SoilVolumetricWaterContent_DBS-0to1cm_RLatLon0.09_PT049H.grib2 2026-05-06 02:55 343K
20260506T00Z_MSC_RDPS_SpecificHumidity_AGL-120m_RLatLon0.09_PT049H.grib2 2026-05-06 02:55 496K
20260506T00Z_MSC_RDPS_SpecificHumidity_AGL-2m_RLatLon0.09_PT049H.grib2 2026-05-06 02:55 672K
20260506T00Z_MSC_RDPS_SpecificHumidity_AGL-40m_RLatLon0.09_PT049H.grib2 2026-05-06 02:55 504K
20260506T00Z_MSC_RDPS_SpecificHumidity_AGL-80m_RLatLon0.09_PT049H.grib2 2026-05-06 02:55 498K
20260506T00Z_MSC_RDPS_SpecificHumidity_IsbL-0001_RLatLon0.09_PT049H.grib2 2026-05-06 02:55 367K
20260506T00Z_MSC_RDPS_SpecificHumidity_IsbL-0005_RLatLon0.09_PT049H.grib2 2026-05-06 02:55 373K
20260506T00Z_MSC_RDPS_SpecificHumidity_IsbL-0010_RLatLon0.09_PT049H.grib2 2026-05-06 02:55 409K
20260506T00Z_MSC_RDPS_SpecificHumidity_IsbL-0020_RLatLon0.09_PT049H.grib2 2026-05-06 02:55 494K
20260506T00Z_MSC_RDPS_SpecificHumidity_IsbL-0030_RLatLon0.09_PT049H.grib2 2026-05-06 02:55 369K
20260506T00Z_MSC_RDPS_SpecificHumidity_IsbL-0050_RLatLon0.09_PT049H.grib2 2026-05-06 02:55 474K
20260506T00Z_MSC_RDPS_SpecificHumidity_IsbL-0100_RLatLon0.09_PT049H.grib2 2026-05-06 02:55 443K
20260506T00Z_MSC_RDPS_SpecificHumidity_IsbL-0150_RLatLon0.09_PT049H.grib2 2026-05-06 02:55 452K
20260506T00Z_MSC_RDPS_SpecificHumidity_IsbL-0175_RLatLon0.09_PT049H.grib2 2026-05-06 02:55 431K
20260506T00Z_MSC_RDPS_SpecificHumidity_IsbL-0200_RLatLon0.09_PT049H.grib2 2026-05-06 02:55 461K
20260506T00Z_MSC_RDPS_SpecificHumidity_IsbL-0225_RLatLon0.09_PT049H.grib2 2026-05-06 02:55 459K
20260506T00Z_MSC_RDPS_SpecificHumidity_IsbL-0250_RLatLon0.09_PT049H.grib2 2026-05-06 02:55 502K
20260506T00Z_MSC_RDPS_SpecificHumidity_IsbL-0275_RLatLon0.09_PT049H.grib2 2026-05-06 02:55 463K
20260506T00Z_MSC_RDPS_SpecificHumidity_IsbL-0300_RLatLon0.09_PT049H.grib2 2026-05-06 02:55 438K
20260506T00Z_MSC_RDPS_SpecificHumidity_IsbL-0350_RLatLon0.09_PT049H.grib2 2026-05-06 02:55 432K
20260506T00Z_MSC_RDPS_SpecificHumidity_IsbL-0400_RLatLon0.09_PT049H.grib2 2026-05-06 02:55 514K
20260506T00Z_MSC_RDPS_SpecificHumidity_IsbL-0450_RLatLon0.09_PT049H.grib2 2026-05-06 02:55 453K
20260506T00Z_MSC_RDPS_SpecificHumidity_IsbL-0500_RLatLon0.09_PT049H.grib2 2026-05-06 02:55 510K
20260506T00Z_MSC_RDPS_SpecificHumidity_IsbL-0550_RLatLon0.09_PT049H.grib2 2026-05-06 02:55 585K
20260506T00Z_MSC_RDPS_SpecificHumidity_IsbL-0600_RLatLon0.09_PT049H.grib2 2026-05-06 02:55 639K
20260506T00Z_MSC_RDPS_SpecificHumidity_IsbL-0650_RLatLon0.09_PT049H.grib2 2026-05-06 02:55 557K
20260506T00Z_MSC_RDPS_SpecificHumidity_IsbL-0700_RLatLon0.09_PT049H.grib2 2026-05-06 02:55 602K
20260506T00Z_MSC_RDPS_SpecificHumidity_IsbL-0750_RLatLon0.09_PT049H.grib2 2026-05-06 02:55 661K
20260506T00Z_MSC_RDPS_SpecificHumidity_IsbL-0800_RLatLon0.09_PT049H.grib2 2026-05-06 02:55 746K
20260506T00Z_MSC_RDPS_SpecificHumidity_IsbL-0850_RLatLon0.09_PT049H.grib2 2026-05-06 02:55 818K
20260506T00Z_MSC_RDPS_SpecificHumidity_IsbL-0875_RLatLon0.09_PT049H.grib2 2026-05-06 02:55 843K
20260506T00Z_MSC_RDPS_SpecificHumidity_IsbL-0900_RLatLon0.09_PT049H.grib2 2026-05-06 02:55 719K
20260506T00Z_MSC_RDPS_SpecificHumidity_IsbL-0925_RLatLon0.09_PT049H.grib2 2026-05-06 02:55 724K
20260506T00Z_MSC_RDPS_SpecificHumidity_IsbL-0950_RLatLon0.09_PT049H.grib2 2026-05-06 02:55 720K
20260506T00Z_MSC_RDPS_SpecificHumidity_IsbL-0970_RLatLon0.09_PT049H.grib2 2026-05-06 02:55 712K
20260506T00Z_MSC_RDPS_SpecificHumidity_IsbL-0985_RLatLon0.09_PT049H.grib2 2026-05-06 02:55 703K
20260506T00Z_MSC_RDPS_SpecificHumidity_IsbL-1000_RLatLon0.09_PT049H.grib2 2026-05-06 02:55 696K
20260506T00Z_MSC_RDPS_SpecificHumidity_IsbL-1015_RLatLon0.09_PT049H.grib2 2026-05-06 02:55 686K
20260506T00Z_MSC_RDPS_SpecificHumidity_Sfc_RLatLon0.09_PT049H.grib2 2026-05-06 02:55 337K
20260506T00Z_MSC_RDPS_StormRelativeHelicity_EtaL-10000_RLatLon0.09_PT049H.grib2 2026-05-06 02:55 1.2M
20260506T00Z_MSC_RDPS_StormSeverityIndex_EtaL-10000_RLatLon0.09_PT049H.grib2 2026-05-06 02:55 1.1M
20260506T00Z_MSC_RDPS_Thickness_IsbL-0850to0700_RLatLon0.09_PT049H.grib2 2026-05-06 02:55 171K
20260506T00Z_MSC_RDPS_Thickness_IsbL-1000to0500_RLatLon0.09_PT049H.grib2 2026-05-06 02:55 191K
20260506T00Z_MSC_RDPS_Thickness_IsbL-1000to0850_RLatLon0.09_PT049H.grib2 2026-05-06 02:55 255K
20260506T00Z_MSC_RDPS_TotalCloudCover_Sfc_RLatLon0.09_PT049H.grib2 2026-05-06 02:55 660K
20260506T00Z_MSC_RDPS_TotalTotalsIndex_Sfc_RLatLon0.09_PT049H.grib2 2026-05-06 02:55 2.4M
20260506T00Z_MSC_RDPS_UVIndex-ClearSky_Sfc_RLatLon0.09_PT049H.grib2 2026-05-06 02:55 148K
20260506T00Z_MSC_RDPS_UVIndex_Sfc_RLatLon0.09_PT049H.grib2 2026-05-06 02:55 325K
20260506T00Z_MSC_RDPS_UpwardLongwaveRadiationFlux_NTAtm_RLatLon0.09_PT049H.grib2 2026-05-06 02:55 487K
20260506T00Z_MSC_RDPS_UpwardShortwaveRadiationFlux_NTAtm_RLatLon0.09_PT049H.grib2 2026-05-06 02:55 292K
20260506T00Z_MSC_RDPS_VerticalVelocity_IsbL-0250_RLatLon0.09_PT049H.grib2 2026-05-06 02:55 539K
20260506T00Z_MSC_RDPS_VerticalVelocity_IsbL-0500_RLatLon0.09_PT049H.grib2 2026-05-06 02:55 662K
20260506T00Z_MSC_RDPS_VerticalVelocity_IsbL-0700_RLatLon0.09_PT049H.grib2 2026-05-06 02:55 584K
20260506T00Z_MSC_RDPS_VerticalVelocity_IsbL-0850_RLatLon0.09_PT049H.grib2 2026-05-06 02:55 680K
20260506T00Z_MSC_RDPS_VerticalWindShear_EtaL-6500_RLatLon0.09_PT049H.grib2 2026-05-06 02:55 1.2M
20260506T00Z_MSC_RDPS_WindChill_Sfc_RLatLon0.09_PT049H.grib2 2026-05-06 02:55 1.2M
20260506T00Z_MSC_RDPS_WindDir_AGL-10m_RLatLon0.09_PT049H.grib2 2026-05-06 02:55 967K
20260506T00Z_MSC_RDPS_WindDir_AGL-120m_RLatLon0.09_PT049H.grib2 2026-05-06 02:55 610K
20260506T00Z_MSC_RDPS_WindDir_AGL-40m_RLatLon0.09_PT049H.grib2 2026-05-06 02:55 637K
20260506T00Z_MSC_RDPS_WindDir_AGL-80m_RLatLon0.09_PT049H.grib2 2026-05-06 02:55 620K
20260506T00Z_MSC_RDPS_WindDir_IsbL-0001_RLatLon0.09_PT049H.grib2 2026-05-06 02:55 301K
20260506T00Z_MSC_RDPS_WindDir_IsbL-0005_RLatLon0.09_PT049H.grib2 2026-05-06 02:55 378K
20260506T00Z_MSC_RDPS_WindDir_IsbL-0010_RLatLon0.09_PT049H.grib2 2026-05-06 02:55 387K
20260506T00Z_MSC_RDPS_WindDir_IsbL-0020_RLatLon0.09_PT049H.grib2 2026-05-06 02:55 421K
20260506T00Z_MSC_RDPS_WindDir_IsbL-0030_RLatLon0.09_PT049H.grib2 2026-05-06 02:55 413K
20260506T00Z_MSC_RDPS_WindDir_IsbL-0050_RLatLon0.09_PT049H.grib2 2026-05-06 02:55 443K
20260506T00Z_MSC_RDPS_WindDir_IsbL-0100_RLatLon0.09_PT049H.grib2 2026-05-06 02:55 408K
20260506T00Z_MSC_RDPS_WindDir_IsbL-0150_RLatLon0.09_PT049H.grib2 2026-05-06 02:55 413K
20260506T00Z_MSC_RDPS_WindDir_IsbL-0175_RLatLon0.09_PT049H.grib2 2026-05-06 02:55 437K
20260506T00Z_MSC_RDPS_WindDir_IsbL-0200_RLatLon0.09_PT049H.grib2 2026-05-06 02:55 452K
20260506T00Z_MSC_RDPS_WindDir_IsbL-0225_RLatLon0.09_PT049H.grib2 2026-05-06 02:55 460K
20260506T00Z_MSC_RDPS_WindDir_IsbL-0250_RLatLon0.09_PT049H.grib2 2026-05-06 02:55 452K
20260506T00Z_MSC_RDPS_WindDir_IsbL-0275_RLatLon0.09_PT049H.grib2 2026-05-06 02:55 467K
20260506T00Z_MSC_RDPS_WindDir_IsbL-0300_RLatLon0.09_PT049H.grib2 2026-05-06 02:55 465K
20260506T00Z_MSC_RDPS_WindDir_IsbL-0350_RLatLon0.09_PT049H.grib2 2026-05-06 02:55 489K
20260506T00Z_MSC_RDPS_WindDir_IsbL-0400_RLatLon0.09_PT049H.grib2 2026-05-06 02:55 506K
20260506T00Z_MSC_RDPS_WindDir_IsbL-0450_RLatLon0.09_PT049H.grib2 2026-05-06 02:55 529K
20260506T00Z_MSC_RDPS_WindDir_IsbL-0500_RLatLon0.09_PT049H.grib2 2026-05-06 02:55 554K
20260506T00Z_MSC_RDPS_WindDir_IsbL-0550_RLatLon0.09_PT049H.grib2 2026-05-06 02:55 569K
20260506T00Z_MSC_RDPS_WindDir_IsbL-0600_RLatLon0.09_PT049H.grib2 2026-05-06 02:55 592K
20260506T00Z_MSC_RDPS_WindDir_IsbL-0650_RLatLon0.09_PT049H.grib2 2026-05-06 02:55 632K
20260506T00Z_MSC_RDPS_WindDir_IsbL-0700_RLatLon0.09_PT049H.grib2 2026-05-06 02:55 677K
20260506T00Z_MSC_RDPS_WindDir_IsbL-0750_RLatLon0.09_PT049H.grib2 2026-05-06 02:55 728K
20260506T00Z_MSC_RDPS_WindDir_IsbL-0800_RLatLon0.09_PT049H.grib2 2026-05-06 02:55 791K
20260506T00Z_MSC_RDPS_WindDir_IsbL-0850_RLatLon0.09_PT049H.grib2 2026-05-06 02:55 857K
20260506T00Z_MSC_RDPS_WindDir_IsbL-0875_RLatLon0.09_PT049H.grib2 2026-05-06 02:55 881K
20260506T00Z_MSC_RDPS_WindDir_IsbL-0900_RLatLon0.09_PT049H.grib2 2026-05-06 02:55 900K
20260506T00Z_MSC_RDPS_WindDir_IsbL-0925_RLatLon0.09_PT049H.grib2 2026-05-06 02:55 913K
20260506T00Z_MSC_RDPS_WindDir_IsbL-0950_RLatLon0.09_PT049H.grib2 2026-05-06 02:55 917K
20260506T00Z_MSC_RDPS_WindDir_IsbL-0970_RLatLon0.09_PT049H.grib2 2026-05-06 02:55 920K
20260506T00Z_MSC_RDPS_WindDir_IsbL-0985_RLatLon0.09_PT049H.grib2 2026-05-06 02:55 927K
20260506T00Z_MSC_RDPS_WindDir_IsbL-1000_RLatLon0.09_PT049H.grib2 2026-05-06 02:55 941K
20260506T00Z_MSC_RDPS_WindDir_IsbL-1015_RLatLon0.09_PT049H.grib2 2026-05-06 02:55 960K
20260506T00Z_MSC_RDPS_WindGust-Max_AGL-10m_RLatLon0.09_PT049H.grib2 2026-05-06 02:55 1.0M
20260506T00Z_MSC_RDPS_WindGust-Min_AGL-10m_RLatLon0.09_PT049H.grib2 2026-05-06 02:55 961K
20260506T00Z_MSC_RDPS_WindGust_AGL-10m_RLatLon0.09_PT049H.grib2 2026-05-06 02:55 1.0M
20260506T00Z_MSC_RDPS_WindSpeed_AGL-10m_RLatLon0.09_PT049H.grib2 2026-05-06 02:55 826K
20260506T00Z_MSC_RDPS_WindSpeed_AGL-120m_RLatLon0.09_PT049H.grib2 2026-05-06 02:55 525K
20260506T00Z_MSC_RDPS_WindSpeed_AGL-40m_RLatLon0.09_PT049H.grib2 2026-05-06 02:55 658K
20260506T00Z_MSC_RDPS_WindSpeed_AGL-80m_RLatLon0.09_PT049H.grib2 2026-05-06 02:55 527K
20260506T00Z_MSC_RDPS_WindSpeed_IsbL-0001_RLatLon0.09_PT049H.grib2 2026-05-06 02:55 332K
20260506T00Z_MSC_RDPS_WindSpeed_IsbL-0005_RLatLon0.09_PT049H.grib2 2026-05-06 02:55 293K
20260506T00Z_MSC_RDPS_WindSpeed_IsbL-0010_RLatLon0.09_PT049H.grib2 2026-05-06 02:55 397K
20260506T00Z_MSC_RDPS_WindSpeed_IsbL-0020_RLatLon0.09_PT049H.grib2 2026-05-06 02:55 421K
20260506T00Z_MSC_RDPS_WindSpeed_IsbL-0030_RLatLon0.09_PT049H.grib2 2026-05-06 02:55 319K
20260506T00Z_MSC_RDPS_WindSpeed_IsbL-0050_RLatLon0.09_PT049H.grib2 2026-05-06 02:55 345K
20260506T00Z_MSC_RDPS_WindSpeed_IsbL-0100_RLatLon0.09_PT049H.grib2 2026-05-06 02:55 430K
20260506T00Z_MSC_RDPS_WindSpeed_IsbL-0150_RLatLon0.09_PT049H.grib2 2026-05-06 02:55 373K
20260506T00Z_MSC_RDPS_WindSpeed_IsbL-0175_RLatLon0.09_PT049H.grib2 2026-05-06 02:55 420K
20260506T00Z_MSC_RDPS_WindSpeed_IsbL-0200_RLatLon0.09_PT049H.grib2 2026-05-06 02:55 437K
20260506T00Z_MSC_RDPS_WindSpeed_IsbL-0225_RLatLon0.09_PT049H.grib2 2026-05-06 02:55 440K
20260506T00Z_MSC_RDPS_WindSpeed_IsbL-0250_RLatLon0.09_PT049H.grib2 2026-05-06 02:55 440K
20260506T00Z_MSC_RDPS_WindSpeed_IsbL-0275_RLatLon0.09_PT049H.grib2 2026-05-06 02:55 455K
20260506T00Z_MSC_RDPS_WindSpeed_IsbL-0300_RLatLon0.09_PT049H.grib2 2026-05-06 02:55 452K
20260506T00Z_MSC_RDPS_WindSpeed_IsbL-0350_RLatLon0.09_PT049H.grib2 2026-05-06 02:55 448K
20260506T00Z_MSC_RDPS_WindSpeed_IsbL-0400_RLatLon0.09_PT049H.grib2 2026-05-06 02:55 454K
20260506T00Z_MSC_RDPS_WindSpeed_IsbL-0450_RLatLon0.09_PT049H.grib2 2026-05-06 02:55 456K
20260506T00Z_MSC_RDPS_WindSpeed_IsbL-0500_RLatLon0.09_PT049H.grib2 2026-05-06 02:55 459K
20260506T00Z_MSC_RDPS_WindSpeed_IsbL-0550_RLatLon0.09_PT049H.grib2 2026-05-06 02:55 577K
20260506T00Z_MSC_RDPS_WindSpeed_IsbL-0600_RLatLon0.09_PT049H.grib2 2026-05-06 02:55 588K
20260506T00Z_MSC_RDPS_WindSpeed_IsbL-0650_RLatLon0.09_PT049H.grib2 2026-05-06 02:55 651K
20260506T00Z_MSC_RDPS_WindSpeed_IsbL-0700_RLatLon0.09_PT049H.grib2 2026-05-06 02:55 675K
20260506T00Z_MSC_RDPS_WindSpeed_IsbL-0750_RLatLon0.09_PT049H.grib2 2026-05-06 02:55 693K
20260506T00Z_MSC_RDPS_WindSpeed_IsbL-0800_RLatLon0.09_PT049H.grib2 2026-05-06 02:55 748K
20260506T00Z_MSC_RDPS_WindSpeed_IsbL-0850_RLatLon0.09_PT049H.grib2 2026-05-06 02:55 805K
20260506T00Z_MSC_RDPS_WindSpeed_IsbL-0875_RLatLon0.09_PT049H.grib2 2026-05-06 02:55 829K
20260506T00Z_MSC_RDPS_WindSpeed_IsbL-0900_RLatLon0.09_PT049H.grib2 2026-05-06 02:55 839K
20260506T00Z_MSC_RDPS_WindSpeed_IsbL-0925_RLatLon0.09_PT049H.grib2 2026-05-06 02:55 853K
20260506T00Z_MSC_RDPS_WindSpeed_IsbL-0950_RLatLon0.09_PT049H.grib2 2026-05-06 02:55 855K
20260506T00Z_MSC_RDPS_WindSpeed_IsbL-0970_RLatLon0.09_PT049H.grib2 2026-05-06 02:55 851K
20260506T00Z_MSC_RDPS_WindSpeed_IsbL-0985_RLatLon0.09_PT049H.grib2 2026-05-06 02:55 846K
20260506T00Z_MSC_RDPS_WindSpeed_IsbL-1000_RLatLon0.09_PT049H.grib2 2026-05-06 02:55 838K
20260506T00Z_MSC_RDPS_WindSpeed_IsbL-1015_RLatLon0.09_PT049H.grib2 2026-05-06 02:55 827K
20260506T00Z_MSC_RDPS_WindU_AGL-10m_RLatLon0.09_PT049H.grib2 2026-05-06 02:55 427K
20260506T00Z_MSC_RDPS_WindU_AGL-120m_RLatLon0.09_PT049H.grib2 2026-05-06 02:55 526K
20260506T00Z_MSC_RDPS_WindU_AGL-40m_RLatLon0.09_PT049H.grib2 2026-05-06 02:55 530K
20260506T00Z_MSC_RDPS_WindU_AGL-80m_RLatLon0.09_PT049H.grib2 2026-05-06 02:55 528K
20260506T00Z_MSC_RDPS_WindU_IsbL-0001_RLatLon0.09_PT049H.grib2 2026-05-06 02:55 244K
20260506T00Z_MSC_RDPS_WindU_IsbL-0005_RLatLon0.09_PT049H.grib2 2026-05-06 02:55 286K
20260506T00Z_MSC_RDPS_WindU_IsbL-0010_RLatLon0.09_PT049H.grib2 2026-05-06 02:55 299K
20260506T00Z_MSC_RDPS_WindU_IsbL-0020_RLatLon0.09_PT049H.grib2 2026-05-06 02:55 317K
20260506T00Z_MSC_RDPS_WindU_IsbL-0030_RLatLon0.09_PT049H.grib2 2026-05-06 02:55 313K
20260506T00Z_MSC_RDPS_WindU_IsbL-0050_RLatLon0.09_PT049H.grib2 2026-05-06 02:55 375K
20260506T00Z_MSC_RDPS_WindU_IsbL-0100_RLatLon0.09_PT049H.grib2 2026-05-06 02:55 424K
20260506T00Z_MSC_RDPS_WindU_IsbL-0150_RLatLon0.09_PT049H.grib2 2026-05-06 02:55 391K
20260506T00Z_MSC_RDPS_WindU_IsbL-0175_RLatLon0.09_PT049H.grib2 2026-05-06 02:55 414K
20260506T00Z_MSC_RDPS_WindU_IsbL-0200_RLatLon0.09_PT049H.grib2 2026-05-06 02:55 429K
20260506T00Z_MSC_RDPS_WindU_IsbL-0225_RLatLon0.09_PT049H.grib2 2026-05-06 02:55 334K
20260506T00Z_MSC_RDPS_WindU_IsbL-0250_RLatLon0.09_PT049H.grib2 2026-05-06 02:55 333K
20260506T00Z_MSC_RDPS_WindU_IsbL-0275_RLatLon0.09_PT049H.grib2 2026-05-06 02:55 346K
20260506T00Z_MSC_RDPS_WindU_IsbL-0300_RLatLon0.09_PT049H.grib2 2026-05-06 02:55 341K
20260506T00Z_MSC_RDPS_WindU_IsbL-0350_RLatLon0.09_PT049H.grib2 2026-05-06 02:55 351K
20260506T00Z_MSC_RDPS_WindU_IsbL-0400_RLatLon0.09_PT049H.grib2 2026-05-06 02:55 457K
20260506T00Z_MSC_RDPS_WindU_IsbL-0450_RLatLon0.09_PT049H.grib2 2026-05-06 02:55 459K
20260506T00Z_MSC_RDPS_WindU_IsbL-0500_RLatLon0.09_PT049H.grib2 2026-05-06 02:55 463K
20260506T00Z_MSC_RDPS_WindU_IsbL-0550_RLatLon0.09_PT049H.grib2 2026-05-06 02:55 466K
20260506T00Z_MSC_RDPS_WindU_IsbL-0600_RLatLon0.09_PT049H.grib2 2026-05-06 02:55 459K
20260506T00Z_MSC_RDPS_WindU_IsbL-0650_RLatLon0.09_PT049H.grib2 2026-05-06 02:55 478K
20260506T00Z_MSC_RDPS_WindU_IsbL-0700_RLatLon0.09_PT049H.grib2 2026-05-06 02:55 501K
20260506T00Z_MSC_RDPS_WindU_IsbL-0750_RLatLon0.09_PT049H.grib2 2026-05-06 02:55 651K
20260506T00Z_MSC_RDPS_WindU_IsbL-0800_RLatLon0.09_PT049H.grib2 2026-05-06 02:55 692K
20260506T00Z_MSC_RDPS_WindU_IsbL-0850_RLatLon0.09_PT049H.grib2 2026-05-06 02:55 747K
20260506T00Z_MSC_RDPS_WindU_IsbL-0875_RLatLon0.09_PT049H.grib2 2026-05-06 02:55 768K
20260506T00Z_MSC_RDPS_WindU_IsbL-0900_RLatLon0.09_PT049H.grib2 2026-05-06 02:55 782K
20260506T00Z_MSC_RDPS_WindU_IsbL-0925_RLatLon0.09_PT049H.grib2 2026-05-06 02:55 792K
20260506T00Z_MSC_RDPS_WindU_IsbL-0950_RLatLon0.09_PT049H.grib2 2026-05-06 02:55 791K
20260506T00Z_MSC_RDPS_WindU_IsbL-0970_RLatLon0.09_PT049H.grib2 2026-05-06 02:55 787K
20260506T00Z_MSC_RDPS_WindU_IsbL-0985_RLatLon0.09_PT049H.grib2 2026-05-06 02:55 783K
20260506T00Z_MSC_RDPS_WindU_IsbL-1000_RLatLon0.09_PT049H.grib2 2026-05-06 02:55 776K
20260506T00Z_MSC_RDPS_WindU_IsbL-1015_RLatLon0.09_PT049H.grib2 2026-05-06 02:55 816K
20260506T00Z_MSC_RDPS_WindV_AGL-10m_RLatLon0.09_PT049H.grib2 2026-05-06 02:55 423K
20260506T00Z_MSC_RDPS_WindV_AGL-120m_RLatLon0.09_PT049H.grib2 2026-05-06 02:55 523K
20260506T00Z_MSC_RDPS_WindV_AGL-40m_RLatLon0.09_PT049H.grib2 2026-05-06 02:55 526K
20260506T00Z_MSC_RDPS_WindV_AGL-80m_RLatLon0.09_PT049H.grib2 2026-05-06 02:55 524K
20260506T00Z_MSC_RDPS_WindV_IsbL-0001_RLatLon0.09_PT049H.grib2 2026-05-06 02:55 245K
20260506T00Z_MSC_RDPS_WindV_IsbL-0005_RLatLon0.09_PT049H.grib2 2026-05-06 02:55 287K
20260506T00Z_MSC_RDPS_WindV_IsbL-0010_RLatLon0.09_PT049H.grib2 2026-05-06 02:55 300K
20260506T00Z_MSC_RDPS_WindV_IsbL-0020_RLatLon0.09_PT049H.grib2 2026-05-06 02:55 317K
20260506T00Z_MSC_RDPS_WindV_IsbL-0030_RLatLon0.09_PT049H.grib2 2026-05-06 02:55 314K
20260506T00Z_MSC_RDPS_WindV_IsbL-0050_RLatLon0.09_PT049H.grib2 2026-05-06 02:55 339K
20260506T00Z_MSC_RDPS_WindV_IsbL-0100_RLatLon0.09_PT049H.grib2 2026-05-06 02:55 421K
20260506T00Z_MSC_RDPS_WindV_IsbL-0150_RLatLon0.09_PT049H.grib2 2026-05-06 02:55 389K
20260506T00Z_MSC_RDPS_WindV_IsbL-0175_RLatLon0.09_PT049H.grib2 2026-05-06 02:55 413K
20260506T00Z_MSC_RDPS_WindV_IsbL-0200_RLatLon0.09_PT049H.grib2 2026-05-06 02:55 332K
20260506T00Z_MSC_RDPS_WindV_IsbL-0225_RLatLon0.09_PT049H.grib2 2026-05-06 02:55 360K
20260506T00Z_MSC_RDPS_WindV_IsbL-0250_RLatLon0.09_PT049H.grib2 2026-05-06 02:55 359K
20260506T00Z_MSC_RDPS_WindV_IsbL-0275_RLatLon0.09_PT049H.grib2 2026-05-06 02:55 371K
20260506T00Z_MSC_RDPS_WindV_IsbL-0300_RLatLon0.09_PT049H.grib2 2026-05-06 02:55 367K
20260506T00Z_MSC_RDPS_WindV_IsbL-0350_RLatLon0.09_PT049H.grib2 2026-05-06 02:55 352K
20260506T00Z_MSC_RDPS_WindV_IsbL-0400_RLatLon0.09_PT049H.grib2 2026-05-06 02:55 356K
20260506T00Z_MSC_RDPS_WindV_IsbL-0450_RLatLon0.09_PT049H.grib2 2026-05-06 02:55 459K
20260506T00Z_MSC_RDPS_WindV_IsbL-0500_RLatLon0.09_PT049H.grib2 2026-05-06 02:55 463K
20260506T00Z_MSC_RDPS_WindV_IsbL-0550_RLatLon0.09_PT049H.grib2 2026-05-06 02:55 465K
20260506T00Z_MSC_RDPS_WindV_IsbL-0600_RLatLon0.09_PT049H.grib2 2026-05-06 02:55 474K
20260506T00Z_MSC_RDPS_WindV_IsbL-0650_RLatLon0.09_PT049H.grib2 2026-05-06 02:55 492K
20260506T00Z_MSC_RDPS_WindV_IsbL-0700_RLatLon0.09_PT049H.grib2 2026-05-06 02:55 496K
20260506T00Z_MSC_RDPS_WindV_IsbL-0750_RLatLon0.09_PT049H.grib2 2026-05-06 02:55 521K
20260506T00Z_MSC_RDPS_WindV_IsbL-0800_RLatLon0.09_PT049H.grib2 2026-05-06 02:55 559K
20260506T00Z_MSC_RDPS_WindV_IsbL-0850_RLatLon0.09_PT049H.grib2 2026-05-06 02:55 608K
20260506T00Z_MSC_RDPS_WindV_IsbL-0875_RLatLon0.09_PT049H.grib2 2026-05-06 02:55 628K
20260506T00Z_MSC_RDPS_WindV_IsbL-0900_RLatLon0.09_PT049H.grib2 2026-05-06 02:55 641K
20260506T00Z_MSC_RDPS_WindV_IsbL-0925_RLatLon0.09_PT049H.grib2 2026-05-06 02:55 652K
20260506T00Z_MSC_RDPS_WindV_IsbL-0950_RLatLon0.09_PT049H.grib2 2026-05-06 02:55 792K
20260506T00Z_MSC_RDPS_WindV_IsbL-0970_RLatLon0.09_PT049H.grib2 2026-05-06 02:55 786K
20260506T00Z_MSC_RDPS_WindV_IsbL-0985_RLatLon0.09_PT049H.grib2 2026-05-06 02:55 779K
20260506T00Z_MSC_RDPS_WindV_IsbL-1000_RLatLon0.09_PT049H.grib2 2026-05-06 02:55 818K
20260506T00Z_MSC_RDPS_WindV_IsbL-1015_RLatLon0.09_PT049H.grib2 2026-05-06 02:55 809K